Погода в Ковалеве

Россия / Воронежская область     50°53′02″N   39°23′45″E
темп.,
°C
ветер,
м/с
пор.,
м/с
влажн.,
%
обл.,
%
осадки,
мм/ч
давл.,
гПа
погр.,
м
9 мая, вс
вс900:00+12зюз4797100 8.1 1007322
03:00+7з61194100 10.2 1008500
06:00+6зсз6992100 2.0 1009753
09:00+6зсз71088100 2.1 1011961
12:00+5сз71292100 0.1 1013792
15:00+8сз7117697 0.3 10151291
18:00+9ссз71174100 0.3 10171207
21:00+6сз61181100 0.3 1019619
10 мая, пн
пн1000:00+4сз51181100 0.0 1020355
03:00+4сз6148340 0.0 1020693
06:00+5ссз7148362 0.0 1020968
09:00+8с91375100 0.0 10201314
12:00+8с91478100 0.0 10191066
15:00+7с101886100 0.4 1017818
18:00+7с102095100 4.1 1015766
21:00+8ссв112094100 6.8 1015644
11 мая, вт
вт1100:00+10ссв101993100 0.1 1014591
03:00+10ссв9189493 0.1 1013605
06:00+8всв4995100 2.1 1016501
09:00+9в71178100 3.1 10181258
12:00+11в81370100 0.1 10191795
15:00+11в9147160 0.4 10201448
18:00+9вюв91479100 0.3 10221350
21:00+9вюв81573100 0.3 10231027
12 мая, ср
ср1200:00+8в51183100 0.0 1024382
03:00+8всв5128694 0.0 1022309
06:00+8всв61484100 0.0 1022427
09:00+13вюв7116861 0.1 1021957
12:00+16юв795997 1.1 10201672
15:00+16юв696298 1.5 1019941
18:00+16юв51067100 0.3 1019702
21:00+13вюв3977100 0.3 1019208
13 мая, чт
чт1300:00+10юв35843 0.0 102068
03:00+9вюв34835 0.0 102055
06:00+10вюв2584100 0.0 1020104
09:00+16вюв346829 0.0 1019445
12:00+20вюв345478 0.0 10181314
15:00+22вюв455174 0.0 10171639
18:00+21юв3665100 0.0 1017199
21:00+16юв3375100 0.0 101726